PQV YBDG-YMMB

Flight info

Callsign PQV
Flight time 0h 34m
Altitude 9000
Route TELIP ARBEY TUNKA BELTA ML MB
Aircraft SR22/L-SG/C

Departure

Time 2026-04-19 09:11
Airport Bendigo Airport (YBDG)

Arrival

Time 2026-04-19 09:46
Airport Melbourne Moorabbin Airport (YMMB)
Time Latitude Longitude Altitude Speed Heading
2026-04-19 09:03 -36.73741 144.32722 686 ft 0 kts 95°
2026-04-19 09:07 -36.73741 144.32724 686 ft 3 kts 92°
2026-04-19 09:08 -36.73732 144.32744 686 ft 0 kts 28°
2026-04-19 09:08 -36.73754 144.32758 687 ft 13 kts 182°
2026-04-19 09:08 -36.73859 144.32779 688 ft 16 kts 107°
2026-04-19 09:09 -36.73884 144.32898 692 ft 11 kts 175°
2026-04-19 09:09 -36.74011 144.32889 697 ft 22 kts 182°
2026-04-19 09:09 -36.74182 144.32881 706 ft 24 kts 182°
2026-04-19 09:09 -36.74280 144.32907 709 ft 8 kts 91°
2026-04-19 09:10 -36.74281 144.32918 709 ft 0 kts 88°
2026-04-19 09:10 -36.74264 144.32988 711 ft 5 kts 359°
2026-04-19 09:10 -36.74223 144.32991 711 ft 34 kts
2026-04-19 09:11 -36.73713 144.33015 714 ft 102 kts
2026-04-19 09:11 -36.72918 144.33061 902 ft 125 kts
2026-04-19 09:11 -36.72030 144.33130 1284 ft 127 kts
2026-04-19 09:11 -36.71197 144.33095 1795 ft 118 kts 340°
2026-04-19 09:12 -36.70652 144.32394 2255 ft 118 kts 287°
2026-04-19 09:12 -36.70742 144.31403 2705 ft 120 kts 244°
2026-04-19 09:12 -36.71304 144.30673 3202 ft 117 kts 201°
2026-04-19 09:12 -36.72094 144.30725 3625 ft 122 kts 160°
2026-04-19 09:13 -36.72823 144.31299 3995 ft 128 kts 144°
2026-04-19 09:13 -36.73521 144.31999 4402 ft 130 kts 142°
2026-04-19 09:13 -36.74219 144.32713 4765 ft 133 kts 145°
2026-04-19 09:13 -36.74966 144.33423 5149 ft 133 kts 143°
2026-04-19 09:14 -36.75653 144.34142 5588 ft 129 kts 144°
2026-04-19 09:14 -36.76409 144.34755 5966 ft 130 kts 150°
2026-04-19 09:14 -36.77144 144.35385 6350 ft 131 kts 149°
2026-04-19 09:14 -36.77890 144.36060 6732 ft 132 kts 148°
2026-04-19 09:15 -36.78625 144.36740 7106 ft 134 kts 148°
2026-04-19 09:15 -36.79374 144.37444 7480 ft 135 kts 147°
2026-04-19 09:15 -36.80883 144.38869 8230 ft 138 kts 147°
2026-04-19 09:16 -36.81643 144.39589 8610 ft 138 kts 147°
2026-04-19 09:16 -36.82424 144.40330 8920 ft 144 kts 147°
2026-04-19 09:16 -36.83278 144.41139 8977 ft 163 kts 146°
2026-04-19 09:16 -36.84217 144.42030 8980 ft 176 kts 146°
2026-04-19 09:17 -36.85222 144.42986 8977 ft 181 kts 146°
2026-04-19 09:17 -36.86225 144.43938 8974 ft 181 kts 146°
2026-04-19 09:17 -36.87226 144.44890 8972 ft 180 kts 146°
2026-04-19 09:17 -36.88226 144.45840 8973 ft 178 kts 146°
2026-04-19 09:18 -36.89199 144.46765 8972 ft 177 kts 146°
2026-04-19 09:18 -36.90184 144.47700 8973 ft 176 kts 146°
2026-04-19 09:18 -36.91169 144.48639 8971 ft 176 kts 146°
2026-04-19 09:18 -36.92139 144.49562 8965 ft 176 kts 146°
2026-04-19 09:19 -36.93114 144.50490 8967 ft 176 kts 146°
2026-04-19 09:19 -36.94094 144.51424 8965 ft 176 kts 146°
2026-04-19 09:19 -36.95067 144.52350 8963 ft 176 kts 146°
2026-04-19 09:19 -36.96049 144.53285 8964 ft 176 kts 146°
2026-04-19 09:20 -36.97030 144.54221 8962 ft 176 kts 146°
2026-04-19 09:20 -36.97998 144.55144 8963 ft 176 kts 146°
2026-04-19 09:20 -36.98984 144.56084 8963 ft 176 kts 146°
2026-04-19 09:20 -36.99962 144.57018 8963 ft 176 kts 146°
2026-04-19 09:21 -37.00931 144.57942 8962 ft 175 kts 146°
2026-04-19 09:21 -37.01903 144.58870 8963 ft 175 kts 146°
2026-04-19 09:21 -37.02881 144.59805 8964 ft 175 kts 146°
2026-04-19 09:21 -37.03847 144.60727 8968 ft 175 kts 146°
2026-04-19 09:22 -37.04810 144.61647 8971 ft 175 kts 147°
2026-04-19 09:22 -37.05783 144.62578 8977 ft 175 kts 147°
2026-04-19 09:22 -37.06753 144.63506 8978 ft 175 kts 146°
2026-04-19 09:22 -37.07732 144.64441 8982 ft 175 kts 146°
2026-04-19 09:23 -37.08701 144.65369 8982 ft 175 kts 145°
2026-04-19 09:23 -37.09669 144.66296 8984 ft 175 kts 145°
2026-04-19 09:23 -37.10642 144.67229 8987 ft 175 kts 145°
2026-04-19 09:23 -37.11620 144.68166 8987 ft 175 kts 145°
2026-04-19 09:24 -37.12593 144.69096 8986 ft 176 kts 145°
2026-04-19 09:24 -37.13564 144.70027 8989 ft 176 kts 145°
2026-04-19 09:24 -37.14540 144.70962 8989 ft 176 kts 145°
2026-04-19 09:24 -37.15516 144.71898 8990 ft 176 kts 145°
2026-04-19 09:25 -37.16499 144.72824 8988 ft 174 kts 150°
2026-04-19 09:25 -37.17627 144.73294 8994 ft 170 kts 169°
2026-04-19 09:25 -37.18780 144.73633 8993 ft 170 kts 170°
2026-04-19 09:25 -37.19941 144.73961 8994 ft 170 kts 170°
2026-04-19 09:26 -37.21101 144.74281 8993 ft 170 kts 171°
2026-04-19 09:26 -37.22254 144.74596 8995 ft 170 kts 171°
2026-04-19 09:26 -37.23430 144.74911 8996 ft 170 kts 171°
2026-04-19 09:26 -37.24584 144.75221 8997 ft 170 kts 170°
2026-04-19 09:27 -37.25753 144.75534 9001 ft 171 kts 170°
2026-04-19 09:27 -37.26919 144.75845 9002 ft 171 kts 170°
2026-04-19 09:27 -37.28093 144.76158 9002 ft 172 kts 170°
2026-04-19 09:27 -37.29271 144.76472 9001 ft 172 kts 171°
2026-04-19 09:28 -37.30452 144.76788 8998 ft 172 kts 171°
2026-04-19 09:28 -37.31629 144.77101 9000 ft 172 kts 171°
2026-04-19 09:28 -37.32804 144.77416 8998 ft 172 kts 171°
2026-04-19 09:28 -37.33970 144.77649 8996 ft 171 kts 174°
2026-04-19 09:29 -37.35154 144.77863 8996 ft 171 kts 175°
2026-04-19 09:29 -37.36342 144.78075 8995 ft 171 kts 175°
2026-04-19 09:29 -37.37523 144.78284 8994 ft 171 kts 174°
2026-04-19 09:29 -37.38712 144.78494 8993 ft 171 kts 174°
2026-04-19 09:30 -37.39897 144.78703 8990 ft 171 kts 174°
2026-04-19 09:30 -37.41073 144.78912 8992 ft 171 kts 174°
2026-04-19 09:30 -37.42262 144.79121 8991 ft 171 kts 174°
2026-04-19 09:30 -37.43453 144.79332 8991 ft 171 kts 174°
2026-04-19 09:31 -37.44623 144.79540 8990 ft 172 kts 174°
2026-04-19 09:31 -37.45813 144.79750 8990 ft 172 kts 174°
2026-04-19 09:31 -37.47001 144.80000 8990 ft 172 kts 173°
2026-04-19 09:31 -37.48182 144.80258 8990 ft 172 kts 173°
2026-04-19 09:32 -37.49365 144.80518 8990 ft 172 kts 172°
2026-04-19 09:32 -37.50559 144.80780 8953 ft 173 kts 173°
2026-04-19 09:32 -37.51775 144.81049 8779 ft 180 kts 173°
2026-04-19 09:32 -37.53018 144.81322 8608 ft 183 kts 173°
2026-04-19 09:33 -37.54286 144.81602 8438 ft 185 kts 172°
2026-04-19 09:33 -37.55507 144.82173 8268 ft 188 kts 159°
2026-04-19 09:33 -37.56700 144.82872 8096 ft 189 kts 157°
2026-04-19 09:33 -37.57879 144.83601 7922 ft 189 kts 156°
2026-04-19 09:34 -37.59064 144.84348 7747 ft 189 kts 156°
2026-04-19 09:34 -37.60233 144.85089 7576 ft 188 kts 156°
2026-04-19 09:34 -37.61419 144.85843 7403 ft 188 kts 155°
2026-04-19 09:34 -37.62580 144.86581 7230 ft 188 kts 155°
2026-04-19 09:35 -37.63753 144.87329 7052 ft 188 kts 155°
2026-04-19 09:35 -37.64935 144.88083 6875 ft 187 kts 155°
2026-04-19 09:35 -37.66104 144.88827 6701 ft 187 kts 156°
2026-04-19 09:35 -37.67263 144.89566 6528 ft 186 kts 155°
2026-04-19 09:36 -37.68418 144.90303 6354 ft 185 kts 156°
2026-04-19 09:36 -37.69570 144.91038 6179 ft 184 kts 156°
2026-04-19 09:36 -37.70714 144.91768 6018 ft 183 kts 156°
2026-04-19 09:36 -37.71833 144.92482 5986 ft 177 kts 156°
2026-04-19 09:37 -37.72920 144.93176 5987 ft 172 kts 156°
2026-04-19 09:37 -37.73974 144.93851 5984 ft 167 kts 156°
2026-04-19 09:37 -37.74993 144.94501 5983 ft 162 kts 156°
2026-04-19 09:37 -37.76009 144.95151 5985 ft 160 kts 156°
2026-04-19 09:38 -37.77001 144.95785 5985 ft 158 kts 155°
2026-04-19 09:38 -37.78017 144.96434 5751 ft 170 kts 155°
2026-04-19 09:38 -37.79100 144.97127 5531 ft 174 kts 155°
2026-04-19 09:38 -37.80183 144.97821 5341 ft 176 kts 155°
2026-04-19 09:39 -37.81278 144.98521 5143 ft 176 kts 155°
2026-04-19 09:39 -37.82382 144.99228 4940 ft 177 kts 155°
2026-04-19 09:39 -37.83479 144.99931 4716 ft 178 kts 155°
2026-04-19 09:39 -37.84594 145.00645 4494 ft 178 kts 154°
2026-04-19 09:40 -37.85691 145.01349 4273 ft 178 kts 154°
2026-04-19 09:40 -37.86795 145.02057 4045 ft 177 kts 154°
2026-04-19 09:40 -37.87906 145.02769 3811 ft 177 kts 154°
2026-04-19 09:40 -37.89015 145.03482 3581 ft 177 kts 154°
2026-04-19 09:41 -37.90113 145.04187 3352 ft 177 kts 154°
2026-04-19 09:41 -37.91199 145.04884 3137 ft 168 kts 154°
2026-04-19 09:41 -37.92182 145.05516 2879 ft 146 kts 154°
2026-04-19 09:41 -37.93037 145.06065 2627 ft 131 kts 153°
2026-04-19 09:42 -37.93791 145.06602 2351 ft 119 kts 146°
2026-04-19 09:42 -37.94449 145.07211 2072 ft 115 kts 137°
2026-04-19 09:42 -37.95052 145.07869 1804 ft 114 kts 136°
2026-04-19 09:42 -37.95616 145.08560 1543 ft 113 kts 131°
2026-04-19 09:43 -37.96145 145.09293 1283 ft 112 kts 130°
2026-04-19 09:43 -37.96554 145.10101 1122 ft 106 kts 111°
2026-04-19 09:43 -37.96821 145.10963 1045 ft 100 kts 110°
2026-04-19 09:43 -37.97270 145.11603 1178 ft 99 kts 149°
2026-04-19 09:44 -37.97982 145.11729 1155 ft 116 kts 180°
2026-04-19 09:44 -37.98835 145.11694 995 ft 117 kts 180°
2026-04-19 09:44 -37.99532 145.11681 1019 ft 93 kts 178°
2026-04-19 09:44 -38.00132 145.11369 893 ft 100 kts 229°
2026-04-19 09:45 -38.00150 145.10565 734 ft 90 kts 313°
2026-04-19 09:45 -37.99618 145.10204 504 ft 84 kts 344°
2026-04-19 09:45 -37.99065 145.10094 267 ft 80 kts 360°
2026-04-19 09:45 -37.98527 145.10051 118 ft 73 kts
2026-04-19 09:46 -37.98049 145.10014 48 ft 60 kts 359°
2026-04-19 09:46 -37.97699 145.09982 51 ft 42 kts 357°
2026-04-19 09:46 -37.97451 145.09956 57 ft 31 kts 354°
2026-04-19 09:46 -37.97275 145.09938 61 ft 20 kts 355°
2026-04-19 09:47 -37.97183 145.09900 62 ft 13 kts 294°
2026-04-19 09:47 -37.97171 145.09834 63 ft 0 kts 321°